Regional Weather Roundup
Issued by NWS

Home | Current Version | Previous Version | Graphics & Text | Print | Product List | Glossary On
Versions: 1 2 3 4 5 6 7 8 9 10 11 12 13 14 15 16 17 18 19 20 21 22 23 24 25 26 27 28 29 30 31 32 33 34 35 36 37 38 39 40 41 42 43 44 45 46 47 48 49 50
000
ASUS43 KMPX 242310
RWRMN
WEATHER ROUNDUP FOR MINNESOTA
NATIONAL WEATHER SERVICE TWIN CITIES/CHANHASSEN MN
500 PM CST WED DEC 24 2014


NOTE: "FAIR" INDICATES FEW OR NO CLOUDS BELOW 12,000 FEET WITH NO
SIGNIFICANT WEATHER AND/OR OBSTRUCTIONS TO VISIBILITY. N/A MEANS
CURRENT SKY AND/OR WEATHER CONDITIONS ARE NOT AVAILABLE.

MNZ060>063-068>070-250000-
   Twin Cities Metro

CITY           SKY/WX    TMP DP  RH WIND       PRES   REMARKS
TWIN CITIES    CLOUDY    35  30  82 W8        29.63S WCI  29
ST PAUL        CLOUDY    35  30  82 W8        29.64F WCI  29
CRYSTAL        CLOUDY    35  31  85 W7        29.61F WCI  29
BLAINE         CLOUDY    36  36 100 W8        29.62S
LAKEVILLE      CLOUDY    34  30  86 W8        29.63S WCI  27
EDEN PRAIRIE   CLOUDY    34  30  85 W6        29.62F WCI  29
SOUTH ST PAUL  CLOUDY    36  31  85 W5        29.63S
LAKE ELMO      CLOUDY    34  32  93 W5        29.63S WCI  30
$$
MNZ001>005-007-008-013>017-022>024-027-028-250000-
   Northwest Minnesota

CITY           SKY/WX    TMP DP  RH WIND       PRES   REMARKS
BEMIDJI        CLOUDY    30  27  88 SW7       29.54F WCI  23
HALLOCK        CLOUDY    28  27  93 S14       29.51F WCI  17
ROSEAU         CLOUDY    28  25  86 S10       29.52F WCI  19
WARROAD        CLOUDY    28  27  93 S6        29.53F WCI  22
THIEF RVR FALL CLOUDY    27  25  93 S9        29.55F WCI  17
CROOKSTON      CLOUDY    27  27 100 S16       29.56F WCI  14
FOSSTON        CLOUDY    27  25  93 S14       29.56F WCI  15
DETROIT LAKES  CLOUDY    28  28 100 SW7       29.57F WCI  21
MOORHEAD       CLOUDY    27  27 100 S10       29.58F FOG     WCI  17
PARK RAPIDS    CLOUDY    31  28  89 S9        29.54F WCI  23
MAHNOMEN       CLOUDY    27  26  96 SW12      29.56S WCI  16
$$
MNZ006-009>011-018-025>026-250000-
   North Central Minnesota

CITY           SKY/WX    TMP DP  RH WIND       PRES   REMARKS
BAUDETTE       CLOUDY    31  28  89 S3        29.53F
FLAG ISLAND    LGT RAIN  28  27  93 S7        29.51F WCI  21
INTL FALLS     CLOUDY    32  31  96 CALM      29.53F
WASKISH        CLOUDY    30  30 100 CALM      29.54F
BIG FORK       CLOUDY    34  30  86 CALM      29.54S
LONGVILLE      CLOUDY    32  30  93 CALM      29.55F
GRAND RAPIDS   CLOUDY    32  28  86 SW5       29.55F WCI  27
CRANE LAKE     CLOUDY    30  30 100 CALM      29.56F FOG
ORR            CLOUDY    32  30  93 CALM      29.51F
COOK           CLOUDY    30  30 100 CALM      29.54F
WALKER         CLOUDY    30  27  86 SW8       29.54F WCI  23
$$
MNZ012-019>021-037-250000-
   Northeast Minnesota

CITY           SKY/WX    TMP DP  RH WIND       PRES   REMARKS
DULUTH         CLOUDY    32  29  88 NW6       29.54F WCI  26
ELY            FLURRIES  30  30 100 CALM      29.54F
HIBBING        CLOUDY    33  30  88 CALM      29.54F
EVELETH        CLOUDY    32  32 100 CALM      29.55F
DULUTH HARBOR  CLOUDY    36  30  80 CALM      29.59F
TWO HARBORS    CLOUDY    36  30  80 CALM      29.54F
SILVER BAY     CLOUDY    34  30  86 CALM      29.54F
GRAND MARAIS     N/A     35  28  75 S3        29.55S
G MARAIS ARPRT CLOUDY    27  23  86 CALM      29.52R
$$
MNZ029>031-032-039>041-046>048-054>057-064-250000-
   West Central Minnesota

CITY           SKY/WX    TMP DP  RH WIND       PRES   REMARKS
FERGUS FALLS   CLOUDY    27  25  93 S9        29.62F WCI  17
WHEATON        CLOUDY    27  25  93 S9        29.62F WCI  17
MORRIS         CLOUDY    28  27  93 SW6       29.61S FOG     WCI  22
ALEXANDRIA     CLOUDY    28  26  92 SW6       29.59F WCI  22
ELBOW LAKE     CLOUDY    26  26  97 SW9       29.59F WCI  17
WADENA         CLOUDY    27  27 100 SW6       29.56F WCI  20
GLENWOOD       CLOUDY    28  27  93 SW7       29.60F WCI  21
APPLETON       CLOUDY    30  27  86 SW7       29.63F WCI  23
BENSON         CLOUDY    28  27  93 SW8       29.62F WCI  20
ORTONVILLE     CLOUDY    28  25  86 SW6       29.61F WCI  22
MADISON          N/A     32  28  86 SW8       29.63F WCI  25
WILLMAR        CLOUDY    30  28  93 W6        29.64F WCI  24
$$
MNZ033>034-036-042>043-049>051-058-059-250000-
   Central Minnesota

CITY           SKY/WX    TMP DP  RH WIND       PRES   REMARKS
ST CLOUD       CLOUDY    35  30  82 W3        29.61F
SAUK CENTRE    CLOUDY    30  28  93 W5        29.60F WCI  25
PAYNESVILLE    CLOUDY    29  28  97 SW5       29.62F WCI  24
AITKIN         CLOUDY    36  28  75 CALM      29.55F
PINE RIVER     CLOUDY    32  28  86 CALM      29.60F
BRAINERD       CLOUDY    32  29  88 SW5       29.57F WCI  27
STAPLES        CLOUDY    28  28 100 CALM      29.57F
LONG PRAIRIE   CLOUDY    30  28  93 W5        29.59F WCI  25
LITTLE FALLS   CLOUDY    32  28  86 SW3       29.59F
LITCHFIELD     CLOUDY    32  32 100 CALM      29.63F
BUFFALO        CLOUDY    33  30  90 W5        29.63F WCI  28
MAPLE LAKE     CLOUDY    34  32  93 W5        29.64S WCI  30
$$
MNZ037-044-045-052-053-250000-
   East Central Minnesota

CITY           SKY/WX    TMP DP  RH WIND       PRES   REMARKS
PRINCETON      CLOUDY    36  30  80 W7        29.61F
MORA           CLOUDY    32  28  86 CALM      29.61F
CAMBRIDGE      CLOUDY    36  28  75 CALM      29.59F
RUSH CITY      CLOUDY    33  30  87 CALM      29.61F
MOOSE LAKE     LGT SNOW  32  32 100 CALM      29.56F
HINCKLEY       CLOUDY    34  32  93 CALM      29.60F
CLOQUET        FLURRIES  32  30  93 W3        29.56F
MCGREGOR       CLOUDY    32  32 100 SW5       29.57F WCI  27
$$
MNZ071>073-080-081-089-090-097-098-250000-
   Southwest Minnesota

CITY           SKY/WX    TMP DP  RH WIND       PRES   REMARKS
MONTEVIDEO     CLOUDY    28  28 100 W6        29.64F WCI  22
GRANITE FALLS  CLOUDY    30  28  90 SW7       29.66F WCI  23
CANBY          CLOUDY    28  26  91 SW6       29.64F WCI  22
MARSHALL       CLOUDY    28  23  80 W10       29.65S WCI  19
REDWOOD FALLS  CLOUDY    31  28  89 W6        29.65F WCI  25
OLIVIA         CLOUDY    30  30 100 W8        29.64F WCI  23
PIPESTONE      FOG       25  25 100 W7        29.64F VSB 1/4 WCI  17
WINDOM         CLOUDY    30  28  93 CALM      29.65F
WORTHINGTON    CLOUDY    27 -20  12 SW12      29.66F WCI  16
JACKSON        CLOUDY    32  28  86 W9        29.66F WCI  24
TRACY          CLOUDY    29  27  94 SW7       29.65S WCI  22
SLAYTON        CLOUDY    26  26  99 SW10      29.65S FOG     WCI  16
$$
MNZ065>067-074>077-082>085-091>093-250000-
   South Central Minnesota

CITY           SKY/WX    TMP DP  RH WIND       PRES   REMARKS
MANKATO        CLOUDY    32  27  80 W9        29.66R WCI  24
NEW ULM        CLOUDY    30  30 100 W5        29.65F WCI  25
FAIRMONT       CLOUDY    30  27  86 NW6       29.66F WCI  24
GLENCOE        CLOUDY    33  32  96 W9        29.64S WCI  25
FARIBAULT      FOG       34  32  93 W6        29.64S VSB 1   WCI  29
OWATONNA       CLOUDY    34  30  86 W10       29.64S FOG     WCI  26
ALBERT LEA     CLOUDY    34  32  93 W6        29.64S WCI  29
$$
MNZ078>079-086>088-094>096-250000-
   Southeast Minnesota

CITY           SKY/WX    TMP DP  RH WIND       PRES   REMARKS
ROCHESTER      CLOUDY    32  30  92 NW12      29.62S WCI  23
RED WING       MOCLDY    34  30  86 W6        29.62S WCI  29
STANTON        CLOUDY    35  31  86 W5        29.62S WCI  31
DODGE CENTER   CLOUDY    34  30  86 W8        29.62F WCI  27
WINONA         CLOUDY    36  32  87 W6        29.62R
AUSTIN         CLOUDY    34  30  86 NW9       29.63F WCI  26
PRESTON        CLOUDY    32  30  93 NW12      29.62S WCI  23
$$
ABBREVIATIONS USED IN REMARKS
   TC - TEMPERATURES IN CELSIUS
  WCI - WIND CHILL INDEX
   HX - HEAT INDEX
  VSB - VISIBILITY
$$



USA.gov is the U.S. government's official web portal to all federal, state and local government web resources and services.